Time,TemperatureF,DewpointF,PressureIn,WindDirection,WindDirectionDegrees,WindSpeedMPH,WindSpeedGustMPH,Humidity,HourlyPrecipIn,Conditions,Clouds,dailyrainin,SolarRadiationWatts/m^2,SoftwareType,DateUTC
2013-04-07 00:03:00,65.0,55.0,-100.00,North,4,5.0,10.0,69,0.00,,,0.00,0.000000,,2013-04-07 10:03:00,
2013-04-07 00:13:00,65.0,55.0,-100.00,North,4,5.0,10.0,69,0.00,,,0.00,0.000000,,2013-04-07 10:13:00,
2013-04-07 00:22:00,65.0,55.0,-100.00,North,4,5.0,10.0,69,0.00,,,0.00,0.000000,,2013-04-07 10:22:00,
2013-04-07 00:32:00,65.0,55.0,-100.00,North,4,5.0,10.0,69,0.00,,,0.00,0.000000,,2013-04-07 10:32:00,
2013-04-07 01:02:00,64.0,58.0,-100.00,North,9,2.0,8.0,80,0.00,,,0.00,0.000000,,2013-04-07 11:02:00,
2013-04-07 01:12:00,64.0,58.0,-100.00,North,9,2.0,8.0,80,0.00,,,0.00,0.000000,,2013-04-07 11:12:00,
2013-04-07 01:22:00,64.0,58.0,-100.00,North,9,2.0,8.0,80,0.00,,,0.00,0.000000,,2013-04-07 11:22:00,
2013-04-07 01:32:00,64.0,58.0,-100.00,North,9,2.0,8.0,80,0.00,,,0.00,0.000000,,2013-04-07 11:32:00,
2013-04-07 02:02:00,61.0,57.0,-100.00,SE,137,3.0,9.0,87,0.00,,,0.00,0.000000,,2013-04-07 12:02:00,
2013-04-07 02:12:00,61.0,57.0,-100.00,SE,137,3.0,9.0,87,0.00,,,0.00,0.000000,,2013-04-07 12:12:00,
2013-04-07 02:22:00,61.0,57.0,-100.00,SE,137,3.0,9.0,87,0.00,,,0.00,0.000000,,2013-04-07 12:22:00,
2013-04-07 02:33:00,61.0,57.0,-100.00,SE,137,3.0,9.0,87,0.00,,,0.00,0.000000,,2013-04-07 12:33:00,
2013-04-07 03:03:00,62.0,57.0,-100.00,NNE,29,2.0,7.0,85,0.00,,,0.00,0.000000,,2013-04-07 13:03:00,
2013-04-07 03:12:00,62.0,57.0,-100.00,NNE,29,2.0,7.0,85,0.00,,,0.00,0.000000,,2013-04-07 13:12:00,
2013-04-07 03:22:00,62.0,57.0,-100.00,NNE,29,2.0,7.0,85,0.00,,,0.00,0.000000,,2013-04-07 13:22:00,
2013-04-07 03:32:00,62.0,57.0,-100.00,NNE,29,2.0,7.0,85,0.00,,,0.00,0.000000,,2013-04-07 13:32:00,
2013-04-07 04:02:00,61.0,60.0,-100.00,NE,45,1.0,3.0,96,0.00,,,0.00,0.000000,,2013-04-07 14:02:00,
2013-04-07 04:12:00,61.0,60.0,-100.00,NE,45,1.0,3.0,96,0.00,,,0.00,0.000000,,2013-04-07 14:12:00,
2013-04-07 04:22:00,61.0,60.0,-100.00,NE,45,1.0,3.0,96,0.00,,,0.00,0.000000,,2013-04-07 14:22:00,
2013-04-07 04:32:00,61.0,60.0,-100.00,NE,45,1.0,3.0,96,0.00,,,0.00,0.000000,,2013-04-07 14:32:00,
2013-04-07 05:02:00,63.0,62.0,-100.00,NE,35,1.0,4.0,97,0.00,,,0.00,0.000000,,2013-04-07 15:02:00,
2013-04-07 05:12:00,63.0,62.0,-100.00,NE,35,1.0,4.0,97,0.00,,,0.00,0.000000,,2013-04-07 15:12:00,
2013-04-07 05:22:00,63.0,62.0,-100.00,NE,35,1.0,4.0,97,0.00,,,0.00,0.000000,,2013-04-07 15:22:00,
2013-04-07 05:33:00,63.0,62.0,-100.00,NE,35,1.0,4.0,97,0.00,,,0.00,0.000000,,2013-04-07 15:33:00,
2013-04-07 06:03:00,61.0,61.0,-100.00,NE,44,2.0,4.0,99,0.00,,,0.00,0.000000,,2013-04-07 16:03:00,
2013-04-07 06:13:00,61.0,61.0,-100.00,NE,44,2.0,4.0,99,0.00,,,0.00,0.000000,,2013-04-07 16:13:00,
2013-04-07 06:23:00,61.0,61.0,-100.00,NE,44,2.0,4.0,99,0.00,,,0.00,0.000000,,2013-04-07 16:23:00,
2013-04-07 06:32:00,61.0,61.0,-100.00,NE,44,2.0,4.0,99,0.00,,,0.00,0.000000,,2013-04-07 16:32:00,
2013-04-07 07:03:00,60.0,60.0,-100.00,ENE,69,3.0,6.0,99,0.00,,,0.00,4.000000,,2013-04-07 17:03:00,
2013-04-07 07:13:00,60.0,60.0,-100.00,ENE,69,3.0,6.0,99,0.00,,,0.00,4.000000,,2013-04-07 17:13:00,
2013-04-07 07:22:00,60.0,60.0,-100.00,ENE,69,3.0,6.0,99,0.00,,,0.00,4.000000,,2013-04-07 17:22:00,
2013-04-07 07:32:00,60.0,60.0,-100.00,ENE,69,3.0,6.0,99,0.00,,,0.00,4.000000,,2013-04-07 17:32:00,
2013-04-07 08:02:00,63.0,59.0,-100.00,NE,34,1.0,5.0,88,0.00,,,0.00,82.000000,,2013-04-07 18:02:00,
2013-04-07 08:13:00,63.0,59.0,-100.00,NE,34,1.0,5.0,88,0.00,,,0.00,82.000000,,2013-04-07 18:13:00,
2013-04-07 08:22:00,63.0,59.0,-100.00,NE,34,1.0,5.0,88,0.00,,,0.00,82.000000,,2013-04-07 18:22:00,
2013-04-07 08:32:00,63.0,59.0,-100.00,NE,34,1.0,5.0,88,0.00,,,0.00,82.000000,,2013-04-07 18:32:00,
2013-04-07 09:02:00,67.0,61.0,-100.00,SSE,167,2.0,5.0,82,0.00,,,0.00,221.000000,,2013-04-07 19:02:00,
2013-04-07 09:12:00,67.0,61.0,-100.00,SSE,167,2.0,5.0,82,0.00,,,0.00,221.000000,,2013-04-07 19:12:00,
2013-04-07 09:22:00,67.0,61.0,-100.00,SSE,167,2.0,5.0,82,0.00,,,0.00,221.000000,,2013-04-07 19:22:00,
2013-04-07 09:32:00,67.0,61.0,-100.00,SSE,167,2.0,5.0,82,0.00,,,0.00,221.000000,,2013-04-07 19:32:00,
2013-04-07 10:02:00,70.0,64.0,-100.00,NE,52,2.0,6.0,81,0.00,,,0.00,351.000000,,2013-04-07 20:02:00,
2013-04-07 10:13:00,70.0,64.0,-100.00,NE,52,2.0,6.0,81,0.00,,,0.00,351.000000,,2013-04-07 20:13:00,
2013-04-07 10:22:00,70.0,64.0,-100.00,NE,52,2.0,6.0,81,0.00,,,0.00,351.000000,,2013-04-07 20:22:00,
2013-04-07 10:32:00,70.0,64.0,-100.00,NE,52,2.0,6.0,81,0.00,,,0.00,351.000000,,2013-04-07 20:32:00,
2013-04-07 11:02:00,70.0,64.0,-100.00,SSE,166,3.0,8.0,81,0.00,,,0.00,424.000000,,2013-04-07 21:02:00,
2013-04-07 11:12:00,70.0,64.0,-100.00,SSE,166,3.0,8.0,81,0.00,,,0.00,424.000000,,2013-04-07 21:12:00,
2013-04-07 11:22:00,70.0,64.0,-100.00,SSE,166,3.0,8.0,81,0.00,,,0.00,424.000000,,2013-04-07 21:22:00,
2013-04-07 11:33:00,70.0,64.0,-100.00,SSE,166,3.0,8.0,81,0.00,,,0.00,424.000000,,2013-04-07 21:33:00,
2013-04-07 12:03:00,74.0,62.0,-100.00,North,358,4.0,11.0,67,0.00,,,0.00,884.000000,,2013-04-07 22:03:00,
2013-04-07 12:13:00,74.0,62.0,-100.00,North,358,4.0,11.0,67,0.00,,,0.00,884.000000,,2013-04-07 22:13:00,
2013-04-07 12:23:00,74.0,62.0,-100.00,North,358,4.0,11.0,67,0.00,,,0.00,884.000000,,2013-04-07 22:23:00,
2013-04-07 12:33:00,74.0,62.0,-100.00,North,358,4.0,11.0,67,0.00,,,0.00,884.000000,,2013-04-07 22:33:00,
2013-04-07 13:03:00,75.0,65.0,-100.00,NNW,338,4.0,11.0,70,0.00,,,0.00,675.000000,,2013-04-07 23:03:00,
2013-04-07 13:12:00,75.0,65.0,-100.00,NNW,338,4.0,11.0,70,0.00,,,0.00,675.000000,,2013-04-07 23:12:00,
2013-04-07 13:22:00,75.0,65.0,-100.00,NNW,338,4.0,11.0,70,0.00,,,0.00,675.000000,,2013-04-07 23:22:00,
2013-04-07 13:32:00,75.0,65.0,-100.00,NNW,338,4.0,11.0,70,0.00,,,0.00,675.000000,,2013-04-07 23:32:00,
2013-04-07 14:02:00,79.0,65.0,-100.00,NE,36,2.0,9.0,62,0.00,,,0.00,890.000000,,2013-04-08 00:02:00,
2013-04-07 14:12:00,79.0,65.0,-100.00,NE,36,2.0,9.0,62,0.00,,,0.00,890.000000,,2013-04-08 00:12:00,
2013-04-07 14:22:00,79.0,65.0,-100.00,NE,36,2.0,9.0,62,0.00,,,0.00,890.000000,,2013-04-08 00:22:00,
2013-04-07 14:32:00,79.0,65.0,-100.00,NE,36,2.0,9.0,62,0.00,,,0.00,890.000000,,2013-04-08 00:32:00,
2013-04-07 15:02:00,80.0,62.0,-100.00,SSE,159,6.0,16.0,54,0.00,,,0.00,1213.000000,,2013-04-08 01:02:00,
2013-04-07 15:12:00,80.0,62.0,-100.00,SSE,159,6.0,16.0,54,0.00,,,0.00,1213.000000,,2013-04-08 01:12:00,
2013-04-07 15:22:00,80.0,62.0,-100.00,SSE,159,6.0,16.0,54,0.00,,,0.00,1213.000000,,2013-04-08 01:22:00,
2013-04-07 15:32:00,80.0,62.0,-100.00,SSE,159,6.0,16.0,54,0.00,,,0.00,1213.000000,,2013-04-08 01:32:00,
2013-04-07 16:02:00,76.0,61.0,-100.00,South,175,5.0,15.0,60,0.00,,,0.00,1005.000000,,2013-04-08 02:02:00,
2013-04-07 16:12:00,76.0,61.0,-100.00,South,175,5.0,15.0,60,0.00,,,0.00,1005.000000,,2013-04-08 02:12:00,
2013-04-07 16:22:00,76.0,61.0,-100.00,South,175,5.0,15.0,60,0.00,,,0.00,1005.000000,,2013-04-08 02:22:00,
2013-04-07 16:32:00,76.0,61.0,-100.00,South,175,5.0,15.0,60,0.00,,,0.00,1005.000000,,2013-04-08 02:32:00,
2013-04-07 17:06:00,74.0,62.0,-100.00,SSE,155,3.0,14.0,66,0.00,,,0.00,469.000000,,2013-04-08 03:06:00,
2013-04-07 17:14:00,74.0,62.0,-100.00,SSE,155,3.0,14.0,66,0.00,,,0.00,469.000000,,2013-04-08 03:14:00,
2013-04-07 17:23:00,74.0,62.0,-100.00,SSE,155,3.0,14.0,66,0.00,,,0.00,469.000000,,2013-04-08 03:23:00,
2013-04-07 17:33:00,74.0,62.0,-100.00,SSE,155,3.0,14.0,66,0.00,,,0.00,469.000000,,2013-04-08 03:33:00,
2013-04-07 18:03:00,70.0,61.0,-100.00,NW,312,1.0,9.0,72,0.00,,,0.00,198.000000,,2013-04-08 04:03:00,
2013-04-07 18:12:00,70.0,61.0,-100.00,NW,312,1.0,9.0,72,0.00,,,0.00,198.000000,,2013-04-08 04:12:00,
2013-04-07 18:23:00,70.0,61.0,-100.00,NW,312,1.0,9.0,72,0.00,,,0.00,198.000000,,2013-04-08 04:23:00,
2013-04-07 18:32:00,70.0,61.0,-100.00,NW,312,1.0,9.0,72,0.00,,,0.00,198.000000,,2013-04-08 04:32:00,
2013-04-07 19:02:00,66.0,57.0,-100.00,East,79,3.0,7.0,74,0.00,,,0.00,70.000000,,2013-04-08 05:02:00,
2013-04-07 19:12:00,66.0,57.0,-100.00,East,79,3.0,7.0,74,0.00,,,0.00,70.000000,,2013-04-08 05:12:00,
2013-04-07 19:22:00,66.0,57.0,-100.00,East,79,3.0,7.0,74,0.00,,,0.00,70.000000,,2013-04-08 05:22:00,
2013-04-07 19:32:00,66.0,57.0,-100.00,East,79,3.0,7.0,74,0.00,,,0.00,70.000000,,2013-04-08 05:32:00,
2013-04-07 20:02:00,62.0,55.0,-100.00,North,352,2.0,9.0,79,0.00,,,0.00,1.000000,,2013-04-08 06:02:00,
2013-04-07 20:12:00,62.0,55.0,-100.00,North,352,2.0,9.0,79,0.00,,,0.00,1.000000,,2013-04-08 06:12:00,
2013-04-07 20:22:00,62.0,55.0,-100.00,North,352,2.0,9.0,79,0.00,,,0.00,1.000000,,2013-04-08 06:22:00,
2013-04-07 20:32:00,62.0,55.0,-100.00,North,352,2.0,9.0,79,0.00,,,0.00,1.000000,,2013-04-08 06:32:00,
2013-04-07 21:02:00,62.0,58.0,-100.00,NNW,337,2.0,5.0,86,0.00,,,0.00,0.000000,,2013-04-08 07:02:00,
2013-04-07 21:12:00,62.0,58.0,-100.00,NNW,337,2.0,5.0,86,0.00,,,0.00,0.000000,,2013-04-08 07:12:00,
2013-04-07 21:22:00,62.0,58.0,-100.00,NNW,337,2.0,5.0,86,0.00,,,0.00,0.000000,,2013-04-08 07:22:00,
2013-04-07 21:32:00,62.0,58.0,-100.00,NNW,337,2.0,5.0,86,0.00,,,0.00,0.000000,,2013-04-08 07:32:00,
2013-04-07 22:02:00,60.0,59.0,-100.00,NNE,12,2.0,4.0,98,0.00,,,0.00,0.000000,,2013-04-08 08:02:00,
2013-04-07 22:12:00,60.0,59.0,-100.00,NNE,12,2.0,4.0,98,0.00,,,0.00,0.000000,,2013-04-08 08:12:00,
2013-04-07 22:22:00,60.0,59.0,-100.00,NNE,12,2.0,4.0,98,0.00,,,0.00,0.000000,,2013-04-08 08:22:00,
2013-04-07 22:32:00,60.0,59.0,-100.00,NNE,12,2.0,4.0,98,0.00,,,0.00,0.000000,,2013-04-08 08:32:00,
2013-04-07 23:02:00,61.0,61.0,-100.00,North,4,3.0,4.0,100,0.00,,,0.00,0.000000,,2013-04-08 09:02:00,
2013-04-07 23:12:00,61.0,61.0,-100.00,North,4,3.0,4.0,100,0.00,,,0.00,0.000000,,2013-04-08 09:12:00,
2013-04-07 23:22:00,61.0,61.0,-100.00,North,4,3.0,4.0,100,0.00,,,0.00,0.000000,,2013-04-08 09:22:00,
2013-04-07 23:32:00,61.0,61.0,-100.00,North,4,3.0,4.0,100,0.00,,,0.00,0.000000,,2013-04-08 09:32:00,